Regional Weather Roundup
Issued by NWS Green Bay, WI

Home | Current Version | Previous Version | Graphics & Text | Print | Product List | Glossary Off
Versions: 1 2 3 4 5 6 7 8 9 10 11 12 13 14 15 16 17 18 19 20 21 22 23 24 25 26 27 28 29 30 31 32 33 34 35 36 37 38 39 40 41 42 43 44 45 46 47 48 49 50

000
ASUS43 KGRB 011011
RWRGRB

NORTH-CENTRAL AND NORTHEAST WISCONSIN REGIONAL WEATHER ROUNDUP
NATIONAL WEATHER SERVICE GREEN BAY WI
500 AM CDT TUE SEP 01 2015

WIZ005-009-010>012-018-019-011100-
NORTH CENTRAL WISCONSIN

CITY           SKY/WX    TMP DP  RH WIND       PRES   REMARKS
IRONWOOD       CLEAR     73  70  88 SW7       29.90S
MANITOWISH WTR CLOUDY    70  70 100 SW7       29.97S FOG
ARBOR VITAE    MOCLDY    67  66  96 S3        29.98S FOG
EAGLE RIVER    CLEAR     67  67 100 CALM      29.99S FOG
LAND O LAKES   CLOUDY    68  68 100 CALM      30.00S FOG
RHINELANDER    CLEAR     68  67  96 SW5       30.00S FOG
PHILLIPS       MOCLDY    67  67 100 CALM      29.97S FOG
ANTIGO         MOCLDY    67  66  98 SW7       30.01S FOG
TOMAHAWK       MOCLDY    65  64  97 CALM      29.99S FOG
MERRILL          N/A     60  60 100 CALM      29.99S FOG
$$

WIZ013-073-011100-
NORTHEAST WISCONSIN

CITY           SKY/WX    TMP DP  RH WIND       PRES   REMARKS
IRON MOUNTAIN  CLEAR     64  63  96 CALM      29.97F FOG
MARINETTE      CLEAR     66  63  88 SW6       29.98S
OCONTO         PTCLDY    61  61 100 CALM      29.98F
$$

WIZ017-030-035>037-045-011100-
CENTRAL WISCONSIN

CITY           SKY/WX    TMP DP  RH WIND       PRES   REMARKS
MEDFORD        CLEAR     66  66 100 S5        29.99R FOG
WAUSAU         MOCLDY    66  65  96 SE6       29.97F FOG
MOSINEE        LGT RAIN  66  66 100 SE6       29.99F
MARSHFIELD     FOG       65  62  90 S6        29.98S VSB 1/2
WISC RAPIDS    MOCLDY    67  64  90 CALM      29.99S FOG
STEVENS POINT  PTCLDY    64  63  97 CALM      29.99S
WAUPACA        CLEAR     64  64  97 CALM      29.99S FOG
SHAWANO        FOG       67  66  96 CALM      29.99S VSB 1
CLINTONVILLE   FOG       61  61 100 CALM      29.99S VSB<1/4
WAUTOMA        LGT RAIN  62  62 100 CALM      29.99S FOG
$$

WIZ038-039-048-051-011100-
FOX VALLEY

CITY           SKY/WX    TMP DP  RH WIND       PRES   REMARKS
NWS GREEN BAY  CLEAR     66  65  96 S6        29.99F FOG
APPLETON       FOG       64  64 100 CALM      29.99S VSB 1/2
OSHKOSH        CLEAR     68  66  93 S8        29.99S FOG
FOND DU LAC    CLEAR     69  67  93 S7        30.00S
$$

WIZ022-050-052-011100-
EAST CENTRAL WISCONSIN

CITY           SKY/WX    TMP DP  RH WIND       PRES   REMARKS
EPHRAIM        FAIR      64  64  98 CALM      29.99S FOG
STURGEON BAY   CLEAR     66  63  88 S3        30.02S
MANITOWOC      CLEAR     55  54  96 MISG      30.01F FOG
SHEBOYGAN      CLEAR     61  61 100 CALM      30.01S FOG
$$

LMZ563-521-522-541>543-011100-
LAKESHORE

STATION/POSITION TIME  TEMP    WIND        PRES    VSBY  WAVE
                       AIR SEA DIR/SP/G                  HT/PER
                 (UTC) (F)     (DEG/KT/KT) (MB)    (MI)  (FT/S)
SHEBOYGAN LKSHOR 1000   56     160/ 10/ 11 1016.4F
KEWAUNEE LKSHORE 0900   49     170/  5/  5 1015.1F
NORTHPORT PIER   0900   65     170/  4/  7 1015.6S
N MID LAKE BUOY  0950   64 65  200/ 14/ 16 1015.4F         2/ 4
S GREEN BAY BUOY 1000   66 64  180/  4/  6 1016.7F
CHAMBERS ISLAND  0900   67     180/  5/  8 1015.6S
MENOMINEE LKSHOR 0900   66     180/  5/  5 1014.4R
$$


USA.gov is the U.S. government's official web portal to all federal, state and local government web resources and services.